Location: DaltonSkyGazer Observatory
(42.4858°N, 73.1565°W)
Time: 06:35:46
(UTC-04:00)

Helios 1B - Visible Passes

Search period start: 18 April 2014 00:00
Search period end: 28 April 2014 00:00
Orbit: 627 x 630 km, 98.2° (Epoch: 18 April)

Date Brightness Start Highest point End Pass type
(mag) Time Alt. Az. Time Alt. Az. Time Alt. Az.
18 Apr 6.7 21:36:09 14° ENE 21:36:09 14° ENE 21:38:05 10° NNE visible
18 Apr 6.3 23:13:30 32° NNW 23:13:30 32° NNW 23:15:56 10° NNW visible
19 Apr 6.3 21:56:17 21° NE 21:56:17 21° NE 21:58:55 10° NNE visible
19 Apr 6.7 23:33:38 24° NW 23:33:38 24° NW 23:35:42 10° NNW visible
20 Apr 5.9 22:16:25 29° NE 22:16:25 29° NE 22:19:22 10° N visible
20 Apr 7.1 23:53:45 17° WNW 23:53:45 17° WNW 23:55:14 10° NW visible
21 Apr 5.6 22:36:32 40° NNE 22:36:32 40° NNE 22:39:35 10° N visible
22 Apr 7.4 00:13:53 11° WNW 00:13:53 11° WNW 00:14:17 10° WNW visible
22 Apr 5.6 22:56:39 44° N 22:56:39 44° N 22:59:39 10° NNW visible
23 Apr 6.6 21:39:26 15° ENE 21:39:28 15° ENE 21:41:54 10° NNE visible
23 Apr 6.0 23:16:46 36° NW 23:16:46 36° NW 23:19:33 10° NNW visible
24 Apr 6.1 21:59:32 23° ENE 21:59:32 23° ENE 22:02:38 10° NNE visible
24 Apr 6.5 23:36:53 26° WNW 23:36:53 26° WNW 23:39:16 10° NNW visible
25 Apr 5.6 22:19:39 33° NE 22:19:39 33° NE 22:23:01 10° N visible
25 Apr 7.0 23:56:59 18° WNW 23:56:59 18° WNW 23:58:44 10° NW visible
26 Apr 5.2 22:39:45 48° NNE 22:39:45 48° NNE 22:43:11 10° N visible
27 Apr 7.4 00:17:05 11° WNW 00:17:05 11° WNW 00:17:38 10° WNW visible
27 Apr 6.9 21:22:57 10° ENE 21:23:16 10° ENE 21:23:35 10° NE visible
27 Apr 5.3 22:59:51 53° NNW 22:59:51 53° NNW 23:03:12 10° NNW visible
